Overview Statistics Trail Chart Weather Telemetry Raw packets
 

This is the latest recevied weather packets stored in our database for station/object VE8SKI. If no packets are shown the sender has not sent any weather packets the latest 10 day(s).

<< 5 6 7 8 9 10 11 >>
Time Temp. Humidity Pressure Rain* Wind** Luminosity Snow
1778060317 3.33° C 55% 1016.7 hPa 0 mm 4.47 m/s, 212° - -
1778060018 3.33° C 55% 1016.7 hPa 0 mm 4.47 m/s, 239° - -
1778059718 3.33° C 56% 1016.8 hPa 0 mm 4.47 m/s, 207° - -
1778059416 3.33° C 54% 1016.7 hPa 0 mm 4.02 m/s, 239° - -
1778059116 3.33° C 54% 1016.7 hPa 0 mm 4.47 m/s, 350° - -
1778058816 3.33° C 55% 1016.7 hPa 0 mm 4.92 m/s, 246° - -
1778058517 3.33° C 56% 1016.8 hPa 0 mm 4.02 m/s, 172° - -
1778058217 3.33° C 56% 1016.7 hPa 0 mm 4.47 m/s, 162° - -
1778057917 3.33° C 56% 1016.8 hPa 0 mm 5.36 m/s, 198° - -
1778057615 3.33° C 56% 1016.9 hPa 0 mm 3.13 m/s, 208° - -
1778057315 3.33° C 56% 1016.9 hPa 0 mm 4.02 m/s, 201° - -
1778057016 3.33° C 55% 1016.9 hPa 0 mm 4.92 m/s, 132° - -
1778056716 3.33° C 55% 1017 hPa 0 mm 4.92 m/s, 242° - -
1778056417 3.89° C 54% 1017 hPa 0 mm 5.36 m/s, 201° - -
1778056117 3.33° C 54% 1017 hPa 0 mm 4.47 m/s, 231° - -
1778055815 3.89° C 54% 1017.1 hPa 0 mm 4.02 m/s, 212° - -
1778055515 3.89° C 54% 1017.1 hPa 0 mm 4.02 m/s, 195° - -
1778055215 3.89° C 54% 1017.2 hPa 0 mm 4.02 m/s, 195° - -
1778054916 3.89° C 54% 1017.2 hPa 0 mm 4.02 m/s, 252° - -
1778054616 3.89° C 54% 1017.2 hPa 0 mm 3.13 m/s, 201° - -
1778054317 3.89° C 54% 1017.3 hPa 0 mm 4.02 m/s, 215° - -
1778054014 3.33° C 56% 1017.4 hPa 0 mm 3.58 m/s, 236° - -
1778053715 3.33° C 57% 1017.4 hPa 0 mm 2.68 m/s, 235° - -
1778053415 3.33° C 58% 1017.4 hPa 0 mm 2.24 m/s, 155° - -
1778053116 3.33° C 58% 1017.5 hPa 0 mm 2.68 m/s, 249° - -

* Rain latest hour (hover to see other rain measurements)
** Current wind speed in m/s (hover to see current wind gust speed)